GFSMW_sfc_30mbdewp_126.txt.gz
Dewpoint
16 15 21 25 34 39 41 44 46 46 47 51 59 62 65 65 65 64 65 67 65 66 66 65 64 63 62 61 61 60 59 59 59 57 54 54 52 51 51 52 52 52 52
13 14 22 34 38 41 45 45 50 50 52 49 49 57 61 66 65 65 64 65 66 66 65 64 63 63 62 61 60 59 58 57 58 55 53 51 51 53 52 51 51 51 51
10 20 33 36 42 43 51 52 53 53 53 52 51 58 63 63 62 63 63 64 65 65 65 64 63 63 62 60 60 59 57 55 57 57 51 49 48 51 52 50 51 51 48
23 31 34 35 40 47 49 53 56 56 54 55 55 61 61 60 60 61 61 62 63 64 64 63 62 62 61 60 59 59 58 55 55 57 52 51 51 49 50 51 51 53 49
30 32 32 36 37 48 49 51 54 56 57 58 58 61 61 60 60 60 60 61 61 61 62 62 62 61 61 60 59 59 58 56 54 55 54 51 52 51 49 49 50 52 49
33 32 35 36 40 48 50 53 52 54 57 59 59 60 61 60 59 59 60 60 60 61 61 61 62 61 61 60 59 59 59 57 56 56 55 52 51 50 50 49 49 50 49
34 34 34 37 39 43 47 48 51 51 56 58 59 60 60 60 59 60 60 60 60 60 60 61 62 61 60 60 60 59 59 58 56 56 55 53 51 51 51 50 50 49 50
34 34 34 35 38 39 42 48 49 52 55 57 57 59 61 61 60 61 60 59 60 60 60 60 61 61 60 60 59 59 59 58 56 57 56 54 51 52 51 50 50 49 49
34 33 32 34 36 37 43 47 48 50 53 55 56 58 60 61 61 61 60 60 60 59 59 58 58 58 58 59 58 58 58 58 57 58 57 55 52 53 51 51 50 50 49
27 27 29 32 35 38 43 46 47 49 50 54 56 57 58 60 61 61 60 58 60 60 59 58 57 57 57 57 58 57 58 57 56 57 57 56 56 53 52 52 51 51 50
13 14 25 31 34 40 42 44 47 47 49 51 55 57 57 59 60 60 59 59 61 60 59 58 56 56 56 56 56 57 57 57 55 57 57 56 56 55 53 52 54 52 51
12 11 10 26 31 37 40 44 46 47 48 49 51 55 58 58 59 60 60 60 60 60 59 58 57 56 55 55 55 56 56 57 56 56 57 56 56 55 54 54 54 53 53
10 12 11 11 27 34 44 44 45 46 47 48 50 53 56 57 58 60 59 60 60 59 60 59 57 56 55 55 55 55 56 56 57 57 56 55 56 54 53 53 54 54 53
8 11 17 17 41 44 43 43 45 45 46 47 48 50 55 57 57 60 59 58 59 58 59 59 59 57 56 55 55 55 55 55 56 57 57 56 56 55 54 54 54 53 52
9 12 19 38 40 41 42 43 43 45 45 45 46 47 50 56 58 59 59 58 58 57 57 57 58 59 57 55 55 54 54 54 55 55 56 56 56 56 56 54 53 52 49
15 19 37 39 39 40 40 41 42 42 43 44 45 47 48 53 57 58 58 57 57 56 57 56 57 56 54 52 55 55 54 54 54 53 51 49 47 44 46 45 46 48 47
30 36 38 38 39 39 39 39 39 40 42 42 43 44 44 49 57 57 57 56 56 56 53 51 49 46 45 47 50 50 47 46 44 43 42 39 36 37 34 32 32 33 35
38 38 37 37 37 37 37 37 38 39 39 40 41 40 40 44 53 57 56 55 52 50 47 44 42 39 37 38 39 38 36 34 33 34 34 34 32 32 32 30 27 26 26
35 34 35 35 35 34 34 34 36 36 36 36 36 37 37 39 44 51 53 50 46 43 41 39 37 36 34 35 35 35 33 31 31 32 32 32 32 32 32 28 25 24 24
33 32 32 33 32 31 31 31 33 33 33 33 33 35 37 38 41 49 48 45 42 38 36 35 35 34 33 34 34 33 31 28 27 28 28 29 29 30 30 26 23 20 21
30 30 30 30 30 29 28 28 29 30 30 32 33 35 36 37 41 47 43 39 37 35 33 32 33 33 33 33 33 32 30 28 26 25 25 26 26 26 25 24 21 19 19
28 27 27 27 28 27 26 25 26 28 29 31 32 34 35 37 46 42 38 36 35 32 31 30 29 30 31 32 31 30 28 27 25 23 23 23 23 21 20 19 18 16 15
26 26 26 26 26 25 24 24 25 27 29 30 31 33 34 34 37 38 36 34 34 32 30 29 27 27 29 29 29 27 26 24 23 23 23 23 22 21 21 20 18 17 15
24 24 24 24 24 24 24 24 24 27 29 29 30 31 31 31 32 33 35 34 32 31 29 27 25 25 25 25 25 25 24 24 23 23 21 20 20 20 22 21 20 18 15
23 23 22 22 22 22 23 24 24 27 27 28 28 29 29 28 27 27 27 30 31 31 29 27 25 23 22 23 24 23 20 19 20 20 19 19 19 18 17 15 14 14 13
23 22 21 21 23 23 22 23 24 26 26 26 26 26 26 26 26 25 24 27 28 28 28 27 25 25 25 24 22 21 21 21 20 18 18 18 18 18 19 19 18 16 14

GFSMW_sfc_30mbdewp_132.txt.gz
Dewpoint
12 13 26 32 38 40 42 53 62 66 66 65 65 65 64 64 64 65 66 66 67 67 65 64 63 63 62 62 61 59 58 58 59 58 58 58 56 55 55 56 56 56 57
12 13 25 38 40 43 48 51 50 52 60 62 65 65 65 64 64 64 64 66 67 67 65 64 63 63 62 61 61 59 58 58 59 56 56 54 55 55 55 55 55 55 56
11 29 39 43 50 51 53 54 55 56 56 54 53 62 64 64 64 64 64 64 66 66 65 64 63 62 62 61 60 60 59 57 59 57 55 52 50 53 54 54 54 54 54
21 35 40 49 50 51 52 52 52 53 58 58 54 57 62 62 64 64 64 64 64 65 65 64 64 63 62 61 60 60 59 58 57 58 56 53 52 50 50 52 53 53 54
34 37 43 47 48 50 51 50 51 52 54 57 59 59 58 58 60 63 64 64 64 64 65 65 64 63 63 62 61 60 59 59 57 57 56 54 52 50 49 49 51 52 53
33 38 47 48 50 49 47 49 51 55 56 57 56 57 58 60 60 61 62 62 63 63 64 65 64 64 63 62 61 61 60 59 58 57 57 55 51 50 48 48 49 50 51
31 43 47 47 46 46 47 48 49 51 53 54 57 57 57 59 60 60 61 61 61 62 63 64 63 63 62 62 61 61 60 59 58 57 57 56 53 51 49 48 49 50 50
35 45 45 45 47 47 47 48 48 48 50 51 53 55 56 57 58 60 60 60 60 61 62 63 63 62 62 61 61 61 60 60 58 57 57 58 56 54 51 49 48 48 49
37 39 41 45 47 47 47 47 47 48 48 50 50 50 52 55 57 59 60 61 61 60 62 62 62 62 61 61 60 60 59 59 59 58 57 57 58 56 55 51 49 47 47
37 39 40 45 46 47 48 47 47 47 47 48 48 48 49 51 54 58 59 60 62 61 61 61 61 61 61 60 60 59 59 59 59 59 58 57 58 57 56 54 52 49 47
37 37 38 45 46 47 48 47 47 46 47 47 47 47 48 49 52 57 58 59 60 61 60 60 60 60 60 60 60 59 59 58 58 59 58 58 58 57 56 55 52 50 49
35 39 44 44 46 46 46 46 46 45 45 45 45 46 47 48 48 49 54 59 59 61 60 59 59 58 58 58 58 58 58 58 57 57 57 57 58 57 56 55 53 52 51
35 35 43 44 44 45 46 44 43 43 43 44 45 45 46 46 47 47 49 53 58 59 60 59 58 57 57 57 57 56 56 56 56 57 57 57 57 57 56 56 55 54 51
36 41 40 40 41 41 41 41 40 41 41 42 42 42 44 44 45 44 46 50 54 58 60 59 58 57 56 56 56 56 56 56 56 57 57 57 57 56 56 56 56 55 51
36 36 37 37 36 36 36 36 36 37 40 40 39 39 40 41 41 41 42 44 48 56 59 59 58 57 56 55 55 55 55 55 56 56 56 56 57 56 56 56 54 53 49
33 34 34 34 33 33 33 33 34 36 37 37 37 37 36 36 37 38 40 41 46 50 59 59 58 57 56 55 54 55 55 55 55 54 55 55 55 55 55 55 52 50 47
33 31 32 32 32 31 30 30 32 33 33 35 34 33 33 34 35 36 38 40 42 45 53 58 58 57 55 54 54 53 54 54 54 54 53 52 52 53 50 51 50 47 45
30 29 29 31 30 29 28 28 29 28 31 31 30 30 31 32 33 35 37 38 40 43 51 55 54 53 49 49 52 51 48 45 43 43 46 48 47 47 45 40 39 39 40
26 26 27 28 27 26 26 26 26 26 26 26 27 29 30 31 33 34 36 37 38 40 46 48 48 46 42 42 45 45 40 37 35 35 37 39 39 39 39 38 35 33 31
25 24 25 25 25 24 25 25 24 24 24 25 26 28 30 31 32 34 35 36 38 40 41 39 40 41 39 37 38 40 36 34 32 32 32 34 35 36 36 36 34 31 30
24 23 23 23 23 23 23 23 23 23 24 24 26 28 29 31 33 34 34 36 39 39 37 35 34 35 35 35 35 36 35 32 30 29 30 31 33 33 33 33 33 28 27
23 22 21 22 22 22 22 22 22 22 24 24 26 27 29 30 30 30 33 37 37 36 34 33 31 32 33 33 33 33 32 30 29 27 28 29 31 30 28 28 28 27 26
22 22 20 20 20 21 23 22 21 22 23 24 25 27 27 28 28 28 30 33 35 33 32 32 30 29 30 31 31 30 29 27 26 27 28 28 27 26 26 25 25 25 24
21 23 19 20 19 20 22 23 22 22 22 23 24 25 26 26 27 27 28 30 33 33 32 31 30 28 28 27 27 27 27 27 27 26 24 23 23 23 22 22 22 22 21
21 23 21 20 20 20 21 23 22 22 22 22 23 24 24 25 25 25 26 27 29 32 32 31 29 27 25 26 27 27 26 25 23 22 22 21 20 18 17 17 18 19 18
20 21 21 20 21 21 21 23 22 22 22 21 22 22 23 23 22 22 23 26 29 30 31 29 28 28 28 28 28 27 25 23 23 22 20 19 19 18 18 18 18 18 17

GFSMW_sfc_30mbdewp_135.txt.gz
Dewpoint
15 14 15 24 30 32 35 55 64 66 66 66 65 64 64 64 65 66 66 66 66 66 66 65 64 63 63 62 62 60 59 58 59 58 57 58 57 57 58 57 57 56 57
15 15 22 37 42 42 46 57 64 66 66 66 65 64 64 64 65 64 66 66 66 66 66 65 64 63 63 62 61 60 59 58 59 56 55 51 54 56 56 56 56 56 57
15 15 29 45 49 51 53 56 60 63 63 63 63 63 64 64 63 63 64 64 66 66 66 65 64 63 63 61 61 60 59 57 58 57 55 52 51 53 55 55 55 55 56
15 16 39 48 51 53 53 55 57 58 57 55 54 58 61 61 63 63 64 64 64 65 65 65 64 63 63 61 61 61 59 58 57 57 57 54 53 51 50 55 55 55 55
16 17 40 49 51 51 52 52 54 57 58 58 56 56 56 59 60 63 63 64 63 64 64 64 63 63 62 62 61 61 60 59 58 57 56 56 52 52 51 50 52 54 54
17 24 44 49 50 50 50 54 55 56 56 56 57 56 57 58 59 60 62 63 63 63 64 64 63 63 62 62 61 61 60 60 59 58 57 56 53 51 49 49 51 51 53
31 24 45 49 48 48 51 53 53 53 55 56 56 56 56 56 58 59 60 60 60 61 62 63 63 63 63 63 62 61 60 60 59 58 58 57 55 52 51 49 50 51 52
35 27 46 48 46 48 48 48 49 49 50 50 50 50 52 55 57 58 59 60 60 60 62 63 63 63 63 62 62 61 60 60 59 58 58 57 57 56 52 50 50 50 50
40 42 47 47 48 48 48 48 47 48 48 48 47 48 49 50 52 56 58 60 60 60 61 62 62 62 62 62 61 61 60 60 59 59 58 57 58 57 55 53 51 50 48
41 44 47 48 49 48 48 47 47 46 46 46 47 47 48 49 51 55 57 58 59 60 61 61 62 62 62 61 61 61 60 60 59 59 58 58 58 58 57 55 54 53 51
39 46 48 48 47 46 45 45 44 43 44 44 45 46 47 48 48 48 49 52 57 59 60 60 61 61 61 60 60 60 60 59 59 59 59 58 58 58 58 57 55 54 53
40 45 46 46 44 42 41 41 40 40 42 43 44 45 46 46 46 46 45 48 51 56 59 60 60 60 61 60 60 59 59 59 58 58 58 58 58 58 58 57 55 54 54
41 42 41 40 39 38 37 37 37 38 40 42 42 42 42 43 43 42 44 44 46 50 55 59 59 59 59 59 59 59 59 58 58 58 58 58 57 57 57 57 56 55 54
38 38 38 37 37 35 34 34 35 37 39 39 39 39 38 38 38 40 41 41 42 45 49 56 59 58 58 58 58 58 58 57 57 57 57 57 56 56 57 56 55 54 52
36 36 35 34 32 31 30 31 32 34 35 36 37 35 35 36 36 37 38 39 41 42 46 50 58 58 58 57 56 57 56 56 56 56 56 56 57 57 57 56 56 55 50
31 30 32 31 29 28 28 29 29 29 32 34 32 32 32 33 34 35 36 38 40 41 42 46 49 58 57 56 55 55 55 55 55 54 55 55 55 55 55 56 55 54 48
26 26 27 28 28 27 27 27 27 27 29 29 28 29 30 31 32 34 35 37 38 38 40 42 46 55 57 55 53 53 54 54 54 54 53 53 53 54 54 53 54 53 47
25 25 25 26 25 25 25 26 26 25 26 25 25 26 28 30 31 33 34 35 36 37 39 41 45 51 56 54 53 51 53 52 51 51 51 52 51 50 51 49 47 47 48
24 23 23 24 24 23 23 24 24 24 24 24 24 25 27 29 30 31 33 34 35 37 38 40 41 43 49 49 48 49 47 45 42 40 41 44 45 44 44 45 43 39 36
23 23 22 22 22 22 22 22 22 22 22 23 24 25 27 28 29 31 32 33 34 36 38 38 38 38 41 39 43 46 42 40 38 35 35 37 39 40 39 42 39 37 33
23 23 20 20 20 20 21 22 21 21 22 23 24 25 26 27 28 29 29 30 32 36 37 35 35 35 35 37 37 41 42 40 35 34 33 33 35 37 36 36 37 35 32
21 22 20 19 20 19 20 21 20 22 22 22 23 23 25 26 27 27 28 29 31 34 34 33 33 32 32 34 35 35 36 35 34 31 31 31 32 32 32 31 30 30 30
20 20 21 19 19 19 20 20 22 21 21 22 22 22 24 24 25 26 26 27 29 32 33 32 31 31 31 31 32 32 31 30 29 30 31 30 30 29 28 29 29 29 28
20 20 21 19 19 20 20 21 21 22 21 21 21 22 22 23 23 24 25 26 27 28 31 32 30 29 29 28 28 29 29 29 28 28 26 25 25 24 24 24 24 25 26
20 20 20 19 19 20 21 21 23 21 20 20 21 20 21 21 21 22 22 24 26 28 28 31 31 29 27 27 28 28 28 27 25 23 23 23 22 21 21 21 21 21 21
21 19 19 19 19 19 20 21 23 22 20 19 20 19 19 19 20 19 19 21 24 28 29 31 30 29 28 29 29 29 27 25 25 24 22 21 21 20 20 19 19 19 19

GFSMW_sfc_30mbdewp_138.txt.gz
Dewpoint
15 17 16 16 22 33 31 30 55 65 65 64 64 64 63 63 63 63 64 64 64 65 65 64 64 63 62 61 61 61 59 59 60 57 57 57 57 58 58 59 58 58 58
15 16 17 22 33 35 41 37 44 63 65 65 65 65 64 64 64 65 65 65 65 65 64 64 63 63 62 63 62 61 59 59 59 57 55 53 54 56 57 58 57 56 57
17 17 17 22 42 43 46 48 47 59 65 65 65 63 64 63 63 63 64 65 65 66 65 65 64 63 63 62 62 60 60 58 59 57 54 51 50 53 55 56 56 56 56
38 35 26 22 42 49 53 56 61 63 64 65 64 63 62 61 62 63 64 63 65 65 65 65 64 64 63 62 62 61 60 59 57 58 56 55 54 50 50 55 56 56 55
37 36 35 24 45 52 54 57 59 59 59 61 62 61 61 61 62 63 63 63 63 64 64 64 64 64 63 63 62 61 60 60 58 57 56 54 53 52 51 50 53 55 56
39 39 38 42 49 51 52 55 57 56 57 57 57 57 58 58 58 59 61 63 61 62 63 63 63 63 62 62 61 61 60 60 59 58 57 55 53 51 50 50 52 52 54
39 42 44 44 49 50 55 55 55 55 55 55 55 56 56 56 57 58 59 60 60 60 60 61 61 62 62 62 62 61 60 60 59 59 57 57 56 53 52 51 51 52 53
39 41 47 44 49 50 50 50 50 50 49 49 49 49 51 54 56 57 58 59 60 60 60 61 61 62 62 62 61 61 61 60 60 59 59 58 57 56 53 51 50 51 51
39 41 48 49 48 48 48 47 46 45 45 47 47 47 49 49 51 54 57 58 60 60 60 60 61 62 62 62 62 61 60 60 60 60 59 58 58 57 55 53 52 51 49
40 43 48 47 46 44 43 42 43 43 44 44 45 46 47 48 48 48 48 52 55 58 59 60 60 61 61 62 61 61 60 60 60 60 58 58 58 58 57 55 54 52 51
39 38 38 40 41 39 39 38 40 41 41 42 42 44 44 45 46 46 45 46 49 52 55 58 59 60 60 60 61 61 60 60 60 59 59 58 58 58 58 56 55 54 53
37 37 36 34 37 36 35 35 36 38 40 40 40 40 40 41 41 41 42 44 44 46 50 53 58 59 60 60 60 60 60 59 59 59 59 58 58 57 58 58 56 55 54
34 34 34 32 32 34 33 33 32 32 35 38 38 38 37 37 37 38 40 41 42 43 44 49 52 58 60 60 60 60 59 59 59 59 58 58 57 57 57 58 57 56 55
34 34 32 32 32 32 32 30 30 30 32 35 35 34 34 35 35 37 37 38 39 41 43 45 49 51 58 59 59 59 59 59 59 59 59 58 58 57 57 57 57 56 55
29 29 30 31 31 29 28 27 28 28 30 31 31 30 31 32 33 34 36 37 39 40 41 41 45 48 51 58 58 58 58 58 58 58 58 58 58 57 57 56 56 56 55
26 26 25 25 27 26 24 25 26 27 27 27 27 27 28 29 31 33 34 36 37 38 39 39 41 44 47 53 56 57 57 57 56 55 56 56 56 56 55 55 56 56 50
24 23 23 23 24 24 23 23 25 25 25 25 25 25 26 27 29 31 33 33 35 36 37 39 40 42 45 47 51 55 56 56 55 55 54 54 54 54 54 53 53 53 51
23 23 22 22 22 22 22 23 23 23 23 23 24 24 26 27 28 29 30 32 33 34 36 37 39 41 42 43 45 50 53 54 54 53 53 53 52 52 53 52 51 49 49
23 23 22 20 21 20 21 22 23 22 22 22 23 24 25 25 27 27 29 30 31 32 34 37 39 39 39 39 40 42 49 50 50 49 49 50 50 50 49 49 48 45 44
21 22 22 19 20 19 20 21 21 21 21 22 22 23 24 25 25 27 28 29 29 31 33 36 37 37 36 36 37 40 46 46 44 41 42 42 45 45 45 47 45 45 42
21 20 22 20 19 19 20 20 20 20 21 22 22 22 23 24 24 26 26 27 27 29 32 34 35 34 34 34 36 38 40 42 40 39 38 37 39 41 40 42 42 42 35
20 19 20 21 19 19 20 19 19 21 21 21 21 21 22 23 23 23 24 25 26 27 30 32 33 34 32 33 34 34 36 37 38 37 35 34 36 35 35 36 34 33 32
19 19 19 19 19 19 20 20 20 20 20 20 20 20 20 21 21 21 22 23 24 24 25 28 31 32 31 31 31 32 33 34 34 32 32 33 32 31 31 31 31 31 31
20 20 19 19 18 19 19 21 21 20 20 19 19 19 18 19 19 20 20 21 23 22 23 25 27 31 30 29 29 30 31 31 31 31 29 28 27 27 27 27 28 29 28
20 20 18 18 18 19 19 20 21 20 19 19 18 18 18 17 17 18 19 21 21 24 25 26 27 29 30 28 28 29 28 27 25 24 25 24 24 23 23 23 23 24 23
19 19 18 18 18 18 19 20 21 21 19 17 17 18 17 17 17 17 17 19 21 25 23 28 29 30 30 29 29 29 27 26 26 24 23 22 23 22 22 22 21 22 21

GFSMW_sfc_30mbdewp_141.txt.gz
Dewpoint
21 24 27 27 26 29 33 35 36 44 62 63 63 62 62 63 63 64 63 63 63 64 65 64 64 64 63 62 62 61 60 60 60 59 59 59 59 59 60 60 60 60 60
36 37 38 36 33 32 36 40 40 41 55 61 63 63 62 63 63 63 63 63 63 63 64 64 64 64 63 62 62 61 59 60 60 58 57 54 55 58 58 59 59 59 59
36 37 38 38 39 36 38 39 43 45 49 61 63 63 64 64 63 63 63 64 63 64 64 64 64 64 63 62 62 61 60 58 59 59 56 52 52 55 57 58 58 59 58
37 38 39 40 42 42 37 48 52 53 49 62 63 63 61 60 62 63 64 64 65 65 65 65 64 64 63 62 62 62 61 60 58 60 59 56 54 51 51 56 57 58 57
38 39 41 42 43 45 45 54 57 59 57 61 63 63 62 62 63 63 64 64 65 64 65 64 64 64 64 63 63 62 61 61 59 59 58 56 55 54 51 51 53 56 57
37 40 41 43 45 48 52 57 57 58 60 61 62 63 62 58 57 58 61 62 63 64 64 63 64 64 64 63 63 62 61 61 60 59 59 57 54 53 52 51 52 53 55
39 40 41 46 48 49 53 53 54 52 53 56 58 59 59 58 58 58 59 58 61 61 62 64 63 64 63 63 63 62 61 61 60 59 59 59 57 56 54 53 51 52 54
39 37 36 40 44 47 48 47 47 48 49 50 50 52 53 55 55 56 58 59 61 61 61 60 61 63 63 63 63 62 61 61 60 60 59 59 59 58 54 54 52 52 53
37 36 36 36 37 38 41 45 45 44 45 46 46 47 48 48 49 51 53 54 57 59 61 61 61 62 61 61 61 61 61 61 60 60 60 59 59 59 57 54 54 52 51
36 35 35 35 36 35 36 37 40 41 41 42 42 42 43 44 44 45 45 46 48 52 54 57 60 60 61 61 61 60 60 60 60 60 60 60 59 59 58 55 55 54 53
32 33 32 33 34 34 35 33 32 36 38 39 39 39 39 39 40 41 42 43 44 45 46 50 55 59 60 61 60 61 60 60 60 60 60 59 59 58 58 57 55 54 54
33 32 32 32 32 32 32 33 32 29 33 35 35 36 36 37 37 38 39 40 41 42 44 45 50 54 59 60 60 60 59 59 60 59 59 59 59 59 58 58 57 55 55
33 33 33 31 31 31 31 31 32 30 30 30 31 32 33 33 35 36 37 38 39 40 42 44 45 49 52 56 59 59 59 60 60 60 59 59 59 58 58 58 57 57 56
31 31 31 30 31 30 30 29 30 30 29 28 28 29 30 31 33 34 35 37 38 40 41 42 43 45 48 50 55 59 59 60 60 60 60 59 58 58 58 58 58 57 56
25 25 25 25 26 27 28 26 28 27 27 27 26 27 28 29 31 33 34 35 37 38 38 40 41 43 45 47 49 50 58 58 59 59 59 59 59 58 58 57 57 57 56
23 22 22 20 21 22 24 24 24 24 25 24 25 26 27 28 30 31 32 34 35 36 36 38 39 41 43 43 43 42 45 57 58 57 58 59 58 57 56 56 57 57 55
22 22 22 20 20 19 20 21 24 24 23 23 24 25 25 26 28 29 30 31 33 33 34 36 38 40 41 42 41 40 41 49 56 57 57 56 56 56 56 54 54 55 55
21 20 21 20 19 19 19 21 22 22 23 22 23 23 24 24 26 27 28 29 30 31 32 34 36 38 40 40 38 37 40 45 52 56 56 55 53 54 54 53 52 51 51
20 20 20 20 19 19 19 20 21 21 21 22 22 23 23 23 24 25 26 27 28 29 30 32 34 37 38 37 36 36 39 42 46 50 53 53 52 52 52 51 51 50 48
19 19 19 20 19 19 19 20 20 20 20 21 21 22 22 22 23 24 24 25 26 27 28 30 33 36 36 36 34 35 37 39 42 45 46 48 50 50 49 51 50 49 48
19 19 18 18 18 18 19 19 19 20 20 21 21 20 20 20 21 22 23 23 24 26 27 28 30 33 35 34 33 34 35 36 37 40 43 42 43 44 46 47 48 48 43
18 19 18 18 18 18 19 18 19 20 20 20 19 19 19 19 19 20 21 22 23 24 24 25 26 29 33 33 33 32 33 34 35 37 38 37 37 39 40 40 40 39 38
19 19 18 17 17 18 18 18 19 20 20 19 18 18 18 19 19 20 21 21 22 22 22 23 25 26 29 33 31 30 31 32 32 34 35 35 34 34 35 35 35 35 35
18 19 18 17 17 18 18 19 19 20 19 19 19 19 19 19 19 20 20 21 22 21 22 22 23 25 28 31 31 31 31 32 31 31 31 30 30 31 31 31 31 32 32
17 18 17 17 16 17 18 19 19 19 19 19 19 18 19 19 19 19 20 20 22 23 23 23 25 27 27 30 30 29 30 28 26 27 27 26 26 26 26 26 26 26 26
17 17 17 16 17 17 18 19 19 19 18 17 17 18 18 19 19 19 18 19 19 20 21 22 24 26 29 30 30 30 28 26 27 26 24 24 24 24 24 23 23 24 24

GFSMW_sfc_30mbdewp_147.txt.gz
Dewpoint
25 27 30 36 40 41 43 44 41 42 41 38 40 52 56 58 60 61 61 62 64 67 67 66 64 65 64 63 63 62 61 60 60 58 58 58 59 58 59 59 58 55 57
26 29 36 37 38 39 42 43 46 46 41 40 38 39 47 53 56 60 61 63 63 66 66 66 65 65 64 64 64 63 62 62 61 58 57 56 58 58 59 58 58 58 57
33 35 36 37 38 38 40 42 44 48 51 44 42 41 42 51 55 57 59 62 63 64 66 66 66 65 65 64 64 64 62 61 62 60 57 55 53 55 57 58 58 58 59
35 36 36 36 37 38 39 39 40 42 49 54 50 45 45 43 51 56 58 60 63 64 65 66 66 66 66 64 64 64 62 61 59 61 61 59 55 53 53 56 58 58 59
35 34 35 35 35 36 37 38 37 38 41 44 52 55 56 49 48 54 57 60 62 64 64 65 65 64 65 64 64 64 62 62 60 60 59 60 59 58 56 53 56 58 58
34 34 34 34 34 35 35 36 36 36 37 40 44 48 54 59 53 52 56 60 62 63 64 64 64 63 64 64 63 63 62 60 61 60 60 59 58 57 56 55 55 55 57
33 33 33 34 35 35 34 33 35 35 35 38 40 43 46 51 60 57 57 60 62 63 63 63 63 63 63 62 62 63 62 62 61 61 60 60 59 59 58 56 55 54 55
32 32 33 34 35 35 35 34 32 34 35 35 38 41 43 46 57 59 59 60 60 58 58 59 58 59 62 60 60 59 59 60 60 61 61 60 60 60 59 58 56 54 55
32 32 33 34 34 33 34 34 32 32 34 34 36 39 40 43 48 54 57 58 58 59 58 57 56 58 58 57 57 58 59 59 61 61 61 60 60 60 60 60 59 55 54
31 32 33 33 31 32 32 33 33 31 33 33 34 37 39 41 44 48 49 52 53 54 58 59 60 61 60 61 61 62 61 61 61 61 61 61 61 60 61 60 60 58 57
29 30 31 31 30 29 30 32 31 32 32 33 35 35 37 39 40 43 46 46 47 49 51 52 55 57 58 59 60 60 60 60 60 60 60 61 61 60 60 61 60 59 58
28 29 29 30 29 28 28 29 31 31 32 32 35 35 35 36 38 40 41 43 44 45 45 47 48 51 53 56 56 58 59 59 60 60 60 60 60 60 60 60 59 59 59
26 27 27 32 31 31 30 27 31 31 32 33 33 34 34 34 36 37 39 40 41 42 42 44 45 46 48 50 53 54 54 54 56 59 59 59 59 59 60 60 59 59 59
24 24 24 25 30 29 29 27 28 32 32 32 33 33 33 34 35 37 36 37 39 39 40 41 42 44 44 45 47 46 47 49 51 52 57 59 59 59 59 59 59 59 58
23 22 22 22 23 23 23 23 24 27 32 30 29 29 30 30 32 34 36 37 36 36 37 39 40 42 42 41 41 41 42 44 46 50 52 56 59 58 59 59 59 58 57
21 20 21 21 21 22 21 21 23 23 26 28 26 25 26 26 27 29 31 32 33 33 35 36 38 39 39 38 38 38 39 41 43 46 49 52 56 58 57 57 57 59 58
20 20 20 20 21 21 21 21 22 23 23 23 23 24 23 24 25 26 28 29 30 31 32 33 35 36 38 36 37 37 37 39 42 44 46 48 52 55 58 57 54 54 57
20 19 20 20 20 20 20 21 22 22 22 22 22 23 23 23 23 25 26 27 28 30 30 31 32 33 34 33 35 35 37 38 39 41 43 44 44 46 49 55 54 53 53
20 19 19 20 19 19 20 21 22 22 22 22 22 22 22 22 22 23 24 26 27 28 28 29 30 31 31 33 33 33 34 36 36 38 39 40 40 41 42 43 49 50 51
20 19 19 19 18 19 20 20 21 21 21 22 23 22 22 21 21 23 24 25 25 26 28 28 30 30 31 31 31 31 32 34 34 35 36 38 38 39 39 38 42 47 49
19 18 17 18 18 19 19 19 20 20 21 22 23 22 22 22 21 23 23 23 24 25 26 26 27 28 28 29 30 31 32 33 32 32 33 35 35 36 36 36 38 43 48
17 16 16 16 17 18 18 18 19 20 21 22 22 22 22 22 22 23 23 23 23 24 24 25 25 26 27 29 28 28 31 31 31 32 33 34 32 33 34 35 37 39 41
15 15 15 15 16 17 17 17 18 19 20 21 22 22 23 22 23 23 23 22 23 23 23 23 23 24 25 27 26 26 27 31 31 32 32 31 31 32 34 36 35 36 38
15 14 14 15 15 16 16 17 19 20 20 22 24 25 25 24 24 23 24 24 23 21 21 21 20 22 23 23 23 23 26 27 29 29 28 30 30 31 32 32 33 34 35
14 15 15 15 15 15 16 17 19 20 20 22 24 24 23 24 24 24 24 24 24 22 21 22 22 21 20 21 20 20 22 24 25 26 28 29 30 30 30 29 29 30 31
16 16 15 15 15 15 16 18 19 20 21 20 22 23 23 23 23 23 23 24 22 21 21 21 21 21 19 18 19 20 20 21 23 25 25 28 28 28 27 27 27 26 27